World > North America > United States > Illinois

Akin, Illinois Regional Weather

Lat: 37.99N, Lon: 88.75W
Wx Zone: ILZ081Web Search
Akin Weather Warning NWS WEATHER ALERT FOR THE AKIN, IL AREA - WIND ADVISORY Issued: 614 AM CDT Sun May 9 2021 Akin Weather Warning  

Ads allow us to feed your daily addiction for the world's greatest weather information. We're determined to offer quality sponsors, in the least annoying way possible.

Feedback


°F Click to change Akin hourly weather to Imperial units.Click to change Akin hourly weather to Metric units. °C
Akin Weather Map
UTC Time: 5/9/2021, 15:49
Your Time:

Akin, IL Regional Weather

Expires:202105091600;;844505
ASUS43 KLOT 091509
RWRIL 

ILLINOIS REGIONAL WEATHER ROUNDUP
NATIONAL WEATHER SERVICE CHICAGO/ROMEOVILLE IL
1000 AM CDT SUN MAY 09 2021

NOTE: "FAIR" INDICATES FEW OR NO CLOUDS BELOW 12,000 FEET WITH NO
SIGNIFICANT WEATHER AND/OR OBSTRUCTIONS TO VISIBILITY.

* THESE STATIONS ARE NOT UNDER NWS QUALITY CONTROL. THEY ALSO MAY NOT
  REPORT WEATHER SUCH AS PRECIPITATION OR FOG.


ILZ064>066-069>071-074>076-080>082-084>086-088>090-092>094-091600-
SOUTH-CENTRAL ILLINOIS
  
CITY           SKY/WX    TMP DP  RH WIND       PRES   REMARKS
CARBONDALE     CLOUDY    64  61  90 SW12      29.64F                  
CAIRO*         CLOUDY    66  62  89 SW6       29.72F                  
EFFINGHAM*     CLOUDY    50  49  95 CALM      29.61S                  
MARION         CLOUDY    64  61  88 S12       29.63F                  
MT. VERNON     CLOUDY    62  62 100 W8        29.58F                  
CENTRALIA*     CLOUDY    56  55  95 NW15G23   29.60F                  
SALEM*         CLOUDY    56  55  96 W10G21    29.61S                  
$$


SKY/WX - Weather  TMP - Temperature  DP - Dew Point  RH - Relative Humidity
WIND - Wind Direction/Speed PRES - Barometric Pressure VSB - Visibility
WCI - Wind Chill Index E13G22 Wind - East Wind 13 mph/Gusts of 22 mph